QPF
0.01 0.01 0.01 0.01 0.01 0.01 0.02 0.01 0.01 0.00 0.00 0.00 0.00 0.00 0.00 0.00 0.00 0.00 0.00 0.00 0.00 0.00 0.01 0.01 0.01 0.01 0.01 0.02 0.02 0.02 0.02 0.02 0.01 0.01 0.01 0.03 0.06 0.04 0.03 0.03 0.01 0.02 0.03
0.01 0.01 0.01 0.01 0.01 0.02 0.02 0.03 0.02 0.01 0.00 0.00 0.00 0.00 0.00 0.00 0.00 0.00 0.00 0.00 0.00 0.00 0.01 0.01 0.01 0.01 0.01 0.01 0.02 0.02 0.01 0.01 0.01 0.01 0.00 0.01 0.01 0.02 0.02 0.03 0.03 0.01 0.02
0.02 0.01 0.01 0.01 0.01 0.01 0.01 0.03 0.03 0.02 0.01 0.00 0.00 0.00 0.00 0.00 0.00 0.00 0.00 0.00 0.00 0.00 0.00 0.00 0.01 0.00 0.01 0.01 0.01 0.01 0.01 0.00 0.01 0.01 0.01 0.01 0.00 0.00 0.01 0.03 0.04 0.03 0.02
0.01 0.01 0.01 0.01 0.01 0.00 0.01 0.02 0.03 0.03 0.02 0.01 0.01 0.00 0.00 0.00 0.00 0.00 0.00 0.00 0.00 0.00 0.00 0.00 0.00 0.00 0.00 0.01 0.01 0.01 0.01 0.00 0.00 0.00 0.01 0.01 0.01 0.00 0.01 0.02 0.03 0.04 0.04
0.02 0.01 0.01 0.01 0.01 0.00 0.00 0.01 0.02 0.03 0.02 0.01 0.01 0.00 0.00 0.00 0.00 0.00 0.00 0.00 0.00 0.00 0.00 0.00 0.00 0.00 0.00 0.01 0.01 0.01 0.01 0.01 0.00 0.00 0.00 0.00 0.00 0.00 0.01 0.01 0.01 0.01 0.01
0.02 0.02 0.01 0.01 0.01 0.00 0.00 0.00 0.01 0.02 0.02 0.01 0.01 0.00 0.00 0.00 0.00 0.00 0.01 0.00 0.00 0.00 0.00 0.00 0.01 0.00 0.00 0.00 0.01 0.01 0.01 0.01 0.01 0.01 0.01 0.01 0.01 0.01 0.01 0.01 0.00 0.00 0.00
0.02 0.02 0.02 0.02 0.01 0.01 0.01 0.01 0.01 0.00 0.01 0.02 0.01 0.00 0.00 0.00 0.00 0.00 0.01 0.00 0.00 0.00 0.00 0.01 0.01 0.00 0.00 0.01 0.01 0.00 0.00 0.00 0.00 0.01 0.01 0.01 0.01 0.01 0.01 0.01 0.01 0.00 0.00
0.02 0.03 0.02 0.02 0.02 0.01 0.01 0.00 0.00 0.00 0.00 0.01 0.01 0.00 0.00 0.00 0.00 0.00 0.01 0.00 0.00 0.00 0.00 0.00 0.00 0.00 0.00 0.01 0.01 0.00 0.00 0.00 0.00 0.00 0.00 0.00 0.00 0.00 0.01 0.01 0.01 0.00 0.00
0.03 0.04 0.03 0.02 0.02 0.01 0.00 0.00 0.00 0.00 0.00 0.00 0.00 0.00 0.00 0.00 0.00 0.00 0.01 0.01 0.01 0.01 0.00 0.00 0.00 0.01 0.01 0.01 0.01 0.00 0.00 0.00 0.00 0.00 0.00 0.00 0.00 0.00 0.00 0.00 0.00 0.00 0.01
0.02 0.02 0.02 0.01 0.01 0.01 0.00 0.00 0.00 0.00 0.00 0.00 0.00 0.00 0.00 0.00 0.00 0.00 0.01 0.01 0.01 0.01 0.00 0.00 0.00 0.01 0.01 0.01 0.01 0.01 0.00 0.00 0.00 0.00 0.00 0.00 0.00 0.00 0.00 0.00 0.00 0.00 0.01
0.01 0.02 0.02 0.01 0.01 0.02 0.02 0.01 0.01 0.01 0.00 0.00 0.00 0.00 0.00 0.00 0.00 0.00 0.01 0.01 0.01 0.00 0.00 0.00 0.00 0.01 0.01 0.01 0.01 0.01 0.00 0.00 0.00 0.00 0.00 0.00 0.00 0.00 0.00 0.00 0.00 0.00 0.01
0.01 0.02 0.03 0.02 0.02 0.02 0.02 0.01 0.01 0.01 0.01 0.00 0.00 0.00 0.00 0.00 0.00 0.00 0.00 0.01 0.01 0.00 0.00 0.00 0.00 0.01 0.01 0.01 0.01 0.00 0.00 0.00 0.00 0.00 0.00 0.00 0.00 0.00 0.00 0.00 0.00 0.00 0.00
0.02 0.02 0.02 0.03 0.03 0.02 0.02 0.02 0.01 0.01 0.01 0.01 0.00 0.00 0.00 0.00 0.00 0.00 0.00 0.00 0.00 0.00 0.00 0.00 0.00 0.00 0.00 0.00 0.01 0.00 0.00 0.00 0.00 0.00 0.00 0.00 0.00 0.00 0.00 0.00 0.00 0.00 0.00
0.03 0.02 0.02 0.03 0.03 0.02 0.02 0.01 0.01 0.01 0.01 0.00 0.00 0.00 0.00 0.00 0.00 0.00 0.00 0.00 0.00 0.00 0.00 0.00 0.00 0.00 0.00 0.00 0.00 0.01 0.00 0.00 0.00 0.00 0.00 0.00 0.00 0.00 0.00 0.00 0.00 0.00 0.00
0.03 0.02 0.02 0.02 0.02 0.02 0.01 0.01 0.01 0.01 0.01 0.00 0.00 0.00 0.00 0.00 0.00 0.00 0.00 0.00 0.00 0.00 0.00 0.00 0.00 0.00 0.00 0.00 0.01 0.00 0.00 0.00 0.00 0.00 0.00 0.00 0.00 0.00 0.00 0.00 0.00 0.00 0.00
0.03 0.03 0.03 0.02 0.02 0.02 0.01 0.01 0.01 0.01 0.01 0.00 0.00 0.00 0.00 0.00 0.00 0.00 0.00 0.00 0.00 0.00 0.00 0.00 0.00 0.00 0.00 0.00 0.00 0.00 0.00 0.00 0.00 0.00 0.00 0.00 0.00 0.00 0.00 0.00 0.00 0.00 0.00
0.04 0.04 0.04 0.03 0.03 0.03 0.02 0.02 0.01 0.00 0.00 0.00 0.00 0.00 0.00 0.00 0.00 0.00 0.00 0.00 0.00 0.00 0.00 0.00 0.00 0.00 0.00 0.00 0.00 0.00 0.00 0.00 0.00 0.00 0.00 0.00 0.00 0.00 0.00 0.00 0.00 0.00 0.00
0.04 0.05 0.04 0.03 0.03 0.03 0.03 0.02 0.02 0.01 0.01 0.00 0.00 0.00 0.00 0.00 0.00 0.00 0.00 0.00 0.00 0.00 0.00 0.00 0.00 0.00 0.00 0.00 0.00 0.00 0.00 0.00 0.00 0.00 0.00 0.00 0.00 0.00 0.00 0.00 0.00 0.01 0.01
0.05 0.07 0.06 0.05 0.04 0.04 0.04 0.04 0.04 0.02 0.01 0.00 0.00 0.00 0.00 0.00 0.00 0.00 0.00 0.00 0.00 0.00 0.00 0.00 0.00 0.00 0.00 0.00 0.00 0.00 0.00 0.00 0.00 0.00 0.00 0.00 0.00 0.00 0.00 0.01 0.01 0.01 0.01
0.04 0.05 0.07 0.07 0.06 0.05 0.04 0.05 0.05 0.03 0.02 0.01 0.00 0.00 0.00 0.00 0.00 0.00 0.00 0.00 0.00 0.00 0.00 0.00 0.00 0.00 0.00 0.00 0.00 0.00 0.00 0.00 0.00 0.00 0.00 0.00 0.00 0.00 0.01 0.01 0.01 0.01 0.01
0.02 0.03 0.03 0.05 0.06 0.06 0.04 0.04 0.04 0.03 0.02 0.01 0.01 0.00 0.00 0.00 0.00 0.00 0.00 0.00 0.00 0.00 0.00 0.00 0.00 0.00 0.00 0.00 0.00 0.00 0.00 0.00 0.00 0.00 0.00 0.00 0.00 0.00 0.01 0.01 0.01 0.01 0.00
0.01 0.02 0.02 0.02 0.03 0.04 0.04 0.03 0.03 0.03 0.02 0.02 0.01 0.01 0.00 0.00 0.00 0.00 0.00 0.00 0.00 0.00 0.00 0.00 0.00 0.00 0.00 0.00 0.00 0.00 0.00 0.00 0.00 0.00 0.00 0.00 0.00 0.00 0.01 0.02 0.01 0.01 0.01
0.01 0.01 0.01 0.01 0.02 0.02 0.02 0.02 0.02 0.02 0.02 0.02 0.01 0.01 0.00 0.00 0.00 0.00 0.00 0.00 0.00 0.00 0.00 0.00 0.00 0.00 0.00 0.00 0.00 0.00 0.00 0.00 0.00 0.00 0.00 0.00 0.00 0.01 0.02 0.02 0.01 0.01 0.01
0.01 0.01 0.01 0.01 0.01 0.01 0.01 0.01 0.01 0.01 0.01 0.01 0.01 0.01 0.01 0.01 0.00 0.00 0.00 0.00 0.00 0.00 0.00 0.00 0.00 0.00 0.00 0.00 0.00 0.00 0.00 0.00 0.00 0.00 0.01 0.01 0.01 0.01 0.02 0.02 0.02 0.01 0.01
0.01 0.01 0.02 0.01 0.01 0.01 0.01 0.01 0.01 0.01 0.01 0.01 0.01 0.01 0.01 0.01 0.01 0.01 0.00 0.00 0.00 0.00 0.00 0.00 0.00 0.00 0.00 0.00 0.00 0.00 0.00 0.00 0.00 0.00 0.01 0.01 0.01 0.01 0.01 0.02 0.02 0.02 0.02
0.01 0.01 0.01 0.01 0.01 0.01 0.01 0.01 0.01 0.01 0.01 0.01 0.01 0.01 0.01 0.01 0.00 0.00 0.00 0.00 0.00 0.00 0.00 0.00 0.00 0.00 0.00 0.00 0.00 0.00 0.00 0.00 0.00 0.00 0.00 0.01 0.01 0.01 0.01 0.02 0.02 0.02 0.02
MSLP
1017.75 1017.99 1018.19 1018.35 1018.49 1018.58 1018.65 1018.70 1018.74 1018.78 1018.84 1018.91 1019.02 1019.14 1019.27 1019.40 1019.51 1019.58 1019.62 1019.62 1019.59 1019.54 1019.48 1019.44 1019.43 1019.47 1019.55 1019.69 1019.88 1020.11 1020.36 1020.62 1020.88 1021.12 1021.33 1021.51 1021.64 1021.74 1021.79 1021.80 1021.79 1021.75 1021.69
1017.53 1017.80 1018.03 1018.21 1018.34 1018.43 1018.50 1018.53 1018.57 1018.60 1018.66 1018.75 1018.87 1019.02 1019.19 1019.37 1019.54 1019.70 1019.82 1019.90 1019.94 1019.94 1019.93 1019.91 1019.89 1019.90 1019.95 1020.04 1020.18 1020.37 1020.58 1020.82 1021.06 1021.30 1021.52 1021.71 1021.86 1021.97 1022.04 1022.07 1022.07 1022.05 1022.02
1017.30 1017.61 1017.87 1018.07 1018.21 1018.31 1018.37 1018.41 1018.44 1018.47 1018.53 1018.63 1018.76 1018.92 1019.12 1019.34 1019.55 1019.76 1019.94 1020.08 1020.18 1020.24 1020.27 1020.28 1020.28 1020.29 1020.32 1020.39 1020.49 1020.64 1020.82 1021.03 1021.25 1021.48 1021.69 1021.88 1022.04 1022.16 1022.24 1022.28 1022.29 1022.28 1022.25
1017.08 1017.42 1017.71 1017.93 1018.09 1018.19 1018.26 1018.31 1018.34 1018.39 1018.46 1018.57 1018.71 1018.89 1019.09 1019.32 1019.56 1019.79 1020.00 1020.17 1020.32 1020.42 1020.49 1020.53 1020.55 1020.57 1020.61 1020.66 1020.74 1020.86 1021.01 1021.19 1021.39 1021.59 1021.79 1021.98 1022.13 1022.26 1022.34 1022.39 1022.41 1022.40 1022.37
1016.87 1017.24 1017.55 1017.78 1017.96 1018.08 1018.16 1018.22 1018.28 1018.34 1018.43 1018.55 1018.71 1018.89 1019.10 1019.32 1019.55 1019.78 1019.99 1020.17 1020.33 1020.45 1020.55 1020.62 1020.67 1020.72 1020.76 1020.82 1020.89 1020.98 1021.11 1021.25 1021.42 1021.59 1021.77 1021.94 1022.09 1022.22 1022.31 1022.36 1022.39 1022.38 1022.35
1016.71 1017.08 1017.39 1017.63 1017.81 1017.94 1018.04 1018.12 1018.20 1018.30 1018.42 1018.56 1018.73 1018.91 1019.11 1019.32 1019.52 1019.72 1019.91 1020.07 1020.23 1020.36 1020.47 1020.56 1020.64 1020.71 1020.77 1020.83 1020.90 1020.98 1021.08 1021.19 1021.32 1021.46 1021.61 1021.76 1021.90 1022.02 1022.12 1022.18 1022.21 1022.21 1022.17
1016.62 1016.97 1017.26 1017.49 1017.66 1017.79 1017.90 1018.00 1018.11 1018.24 1018.39 1018.55 1018.73 1018.92 1019.10 1019.28 1019.45 1019.60 1019.75 1019.88 1020.02 1020.14 1020.25 1020.37 1020.47 1020.57 1020.65 1020.73 1020.80 1020.87 1020.94 1021.01 1021.10 1021.21 1021.32 1021.45 1021.57 1021.69 1021.79 1021.87 1021.90 1021.90 1021.87
1016.64 1016.94 1017.19 1017.38 1017.53 1017.65 1017.76 1017.88 1018.01 1018.16 1018.34 1018.52 1018.71 1018.89 1019.06 1019.21 1019.33 1019.44 1019.54 1019.63 1019.73 1019.83 1019.95 1020.08 1020.21 1020.33 1020.44 1020.53 1020.61 1020.67 1020.72 1020.76 1020.81 1020.87 1020.95 1021.04 1021.15 1021.26 1021.36 1021.44 1021.49 1021.50 1021.46
1016.81 1017.04 1017.22 1017.37 1017.48 1017.58 1017.68 1017.80 1017.94 1018.11 1018.30 1018.50 1018.70 1018.87 1019.01 1019.12 1019.20 1019.26 1019.30 1019.35 1019.41 1019.50 1019.61 1019.75 1019.90 1020.04 1020.18 1020.29 1020.37 1020.42 1020.45 1020.46 1020.47 1020.49 1020.53 1020.59 1020.68 1020.78 1020.87 1020.96 1021.01 1021.02 1020.99
1017.16 1017.30 1017.41 1017.50 1017.57 1017.63 1017.71 1017.82 1017.97 1018.15 1018.34 1018.55 1018.74 1018.90 1019.01 1019.08 1019.11 1019.12 1019.11 1019.11 1019.14 1019.20 1019.30 1019.43 1019.59 1019.76 1019.91 1020.03 1020.12 1020.16 1020.17 1020.15 1020.13 1020.10 1020.10 1020.13 1020.18 1020.26 1020.35 1020.44 1020.50 1020.51 1020.48
1017.69 1017.75 1017.80 1017.83 1017.85 1017.88 1017.94 1018.03 1018.17 1018.34 1018.54 1018.73 1018.91 1019.04 1019.12 1019.15 1019.13 1019.08 1019.01 1018.96 1018.94 1018.97 1019.05 1019.17 1019.33 1019.49 1019.65 1019.78 1019.86 1019.89 1019.88 1019.83 1019.76 1019.70 1019.66 1019.65 1019.67 1019.73 1019.81 1019.88 1019.94 1019.96 1019.93
1018.41 1018.41 1018.40 1018.38 1018.36 1018.36 1018.40 1018.48 1018.60 1018.76 1018.94 1019.11 1019.26 1019.36 1019.40 1019.37 1019.30 1019.19 1019.06 1018.95 1018.88 1018.86 1018.90 1018.99 1019.12 1019.26 1019.40 1019.51 1019.58 1019.59 1019.55 1019.47 1019.37 1019.27 1019.18 1019.14 1019.13 1019.16 1019.21 1019.27 1019.32 1019.34 1019.31
1019.31 1019.27 1019.22 1019.16 1019.12 1019.10 1019.11 1019.17 1019.28 1019.42 1019.57 1019.71 1019.82 1019.88 1019.86 1019.79 1019.65 1019.47 1019.28 1019.10 1018.96 1018.87 1018.85 1018.88 1018.96 1019.06 1019.16 1019.24 1019.27 1019.25 1019.17 1019.06 1018.92 1018.78 1018.65 1018.57 1018.52 1018.52 1018.54 1018.59 1018.62 1018.63 1018.60
1020.35 1020.28 1020.21 1020.14 1020.08 1020.05 1020.05 1020.10 1020.18 1020.29 1020.41 1020.51 1020.58 1020.58 1020.51 1020.37 1020.17 1019.92 1019.65 1019.39 1019.17 1019.00 1018.90 1018.85 1018.86 1018.89 1018.93 1018.95 1018.93 1018.86 1018.75 1018.59 1018.41 1018.23 1018.07 1017.94 1017.85 1017.81 1017.80 1017.81 1017.83 1017.82 1017.79
1021.47 1021.40 1021.33 1021.25 1021.19 1021.15 1021.14 1021.17 1021.23 1021.31 1021.39 1021.45 1021.46 1021.41 1021.28 1021.07 1020.80 1020.48 1020.13 1019.80 1019.49 1019.23 1019.04 1018.90 1018.82 1018.76 1018.72 1018.67 1018.59 1018.47 1018.30 1018.10 1017.88 1017.66 1017.45 1017.28 1017.15 1017.06 1017.00 1016.98 1016.96 1016.93 1016.88
1022.63 1022.56 1022.49 1022.42 1022.36 1022.31 1022.29 1022.30 1022.33 1022.37 1022.41 1022.42 1022.38 1022.27 1022.08 1021.82 1021.48 1021.10 1020.69 1020.27 1019.88 1019.54 1019.25 1019.02 1018.85 1018.70 1018.58 1018.45 1018.31 1018.13 1017.91 1017.67 1017.41 1017.14 1016.89 1016.67 1016.48 1016.34 1016.23 1016.15 1016.09 1016.03 1015.95
1023.75 1023.69 1023.63 1023.55 1023.48 1023.43 1023.39 1023.38 1023.37 1023.37 1023.36 1023.32 1023.23 1023.07 1022.83 1022.52 1022.14 1021.71 1021.25 1020.78 1020.33 1019.91 1019.55 1019.24 1018.98 1018.76 1018.56 1018.37 1018.16 1017.93 1017.67 1017.39 1017.09 1016.78 1016.48 1016.21 1015.96 1015.75 1015.58 1015.44 1015.31 1015.20 1015.08
1024.80 1024.74 1024.67 1024.59 1024.51 1024.43 1024.37 1024.32 1024.27 1024.23 1024.17 1024.08 1023.94 1023.74 1023.47 1023.13 1022.72 1022.27 1021.78 1021.28 1020.80 1020.34 1019.93 1019.57 1019.25 1018.97 1018.72 1018.47 1018.22 1017.95 1017.66 1017.35 1017.01 1016.67 1016.32 1015.99 1015.68 1015.40 1015.15 1014.92 1014.72 1014.54 1014.36
1025.73 1025.66 1025.57 1025.47 1025.37 1025.27 1025.17 1025.07 1024.98 1024.89 1024.78 1024.65 1024.48 1024.25 1023.96 1023.61 1023.21 1022.76 1022.28 1021.78 1021.29 1020.83 1020.40 1020.02 1019.67 1019.36 1019.08 1018.80 1018.53 1018.24 1017.92 1017.58 1017.22 1016.84 1016.45 1016.06 1015.68 1015.32 1014.99 1014.68 1014.39 1014.12 1013.87
1026.52 1026.43 1026.32 1026.20 1026.06 1025.92 1025.78 1025.65 1025.51 1025.37 1025.22 1025.05 1024.85 1024.61 1024.32 1023.98 1023.60 1023.18 1022.73 1022.27 1021.80 1021.36 1020.95 1020.57 1020.23 1019.92 1019.63 1019.34 1019.06 1018.76 1018.43 1018.08 1017.70 1017.28 1016.85 1016.41 1015.96 1015.52 1015.10 1014.70 1014.32 1013.96 1013.63
1027.17 1027.05 1026.92 1026.77 1026.60 1026.42 1026.24 1026.06 1025.88 1025.70 1025.51 1025.31 1025.10 1024.86 1024.58 1024.27 1023.92 1023.54 1023.14 1022.73 1022.32 1021.92 1021.54 1021.19 1020.87 1020.57 1020.29 1020.01 1019.73 1019.43 1019.10 1018.74 1018.34 1017.90 1017.43 1016.94 1016.43 1015.92 1015.41 1014.92 1014.45 1014.00 1013.58
1027.68 1027.54 1027.39 1027.20 1027.01 1026.80 1026.58 1026.36 1026.14 1025.93 1025.71 1025.50 1025.28 1025.04 1024.78 1024.50 1024.20 1023.87 1023.53 1023.17 1022.81 1022.46 1022.12 1021.80 1021.51 1021.23 1020.96 1020.69 1020.41 1020.12 1019.79 1019.42 1019.00 1018.54 1018.04 1017.51 1016.94 1016.37 1015.79 1015.22 1014.67 1014.15 1013.65
1028.07 1027.92 1027.74 1027.54 1027.32 1027.08 1026.84 1026.59 1026.35 1026.11 1025.88 1025.65 1025.43 1025.20 1024.96 1024.71 1024.45 1024.16 1023.86 1023.55 1023.23 1022.92 1022.61 1022.32 1022.04 1021.76 1021.50 1021.23 1020.95 1020.65 1020.31 1019.93 1019.51 1019.03 1018.50 1017.93 1017.33 1016.71 1016.08 1015.46 1014.85 1014.26 1013.71
1028.35 1028.20 1028.01 1027.80 1027.56 1027.31 1027.05 1026.79 1026.53 1026.28 1026.04 1025.81 1025.59 1025.37 1025.15 1024.91 1024.67 1024.41 1024.14 1023.85 1023.55 1023.25 1022.95 1022.66 1022.37 1022.08 1021.80 1021.52 1021.22 1020.90 1020.54 1020.15 1019.70 1019.21 1018.66 1018.07 1017.45 1016.81 1016.15 1015.49 1014.85 1014.23 1013.64
1028.55 1028.39 1028.20 1027.98 1027.75 1027.50 1027.23 1026.97 1026.71 1026.46 1026.22 1025.98 1025.76 1025.54 1025.32 1025.09 1024.85 1024.60 1024.32 1024.03 1023.72 1023.41 1023.09 1022.76 1022.44 1022.12 1021.81 1021.48 1021.15 1020.79 1020.40 1019.98 1019.51 1019.00 1018.44 1017.84 1017.21 1016.56 1015.89 1015.24 1014.59 1013.96 1013.37
1028.66 1028.50 1028.32 1028.11 1027.88 1027.64 1027.38 1027.13 1026.87 1026.63 1026.39 1026.16 1025.93 1025.70 1025.47 1025.23 1024.98 1024.70 1024.40 1024.08 1023.73 1023.38 1023.01 1022.63 1022.25 1021.88 1021.50 1021.12 1020.73 1020.32 1019.89 1019.42 1018.93 1018.40 1017.82 1017.22 1016.59 1015.95 1015.30 1014.65 1014.02 1013.42 1012.84
Thickness
5711 5710 5708 5706 5705 5703 5702 5701 5700 5699 5698 5697 5696 5695 5694 5692 5691 5690 5690 5689 5689 5688 5688 5687 5686 5686 5686 5686 5686 5686 5685 5685 5680 5678 5678 5677 5676 5675 5675 5675 5676 5677 5677
5710 5708 5706 5704 5702 5701 5700 5699 5698 5697 5696 5695 5693 5692 5691 5689 5688 5688 5686 5685 5685 5684 5684 5684 5684 5682 5682 5682 5681 5681 5680 5680 5678 5673 5674 5673 5672 5671 5670 5671 5672 5673 5672
5707 5705 5703 5702 5700 5699 5698 5696 5696 5695 5693 5692 5691 5690 5688 5687 5685 5684 5683 5683 5682 5682 5682 5681 5681 5681 5679 5678 5677 5677 5676 5675 5673 5671 5669 5667 5668 5667 5666 5667 5667 5666 5667
5705 5702 5700 5700 5698 5696 5695 5693 5693 5692 5690 5689 5688 5686 5685 5683 5683 5682 5680 5680 5679 5678 5678 5677 5677 5677 5676 5675 5673 5672 5671 5669 5668 5667 5665 5664 5662 5661 5661 5661 5661 5662 5661
5703 5700 5699 5698 5696 5694 5691 5690 5689 5687 5687 5686 5684 5682 5681 5679 5678 5678 5677 5676 5676 5674 5674 5673 5671 5668 5666 5667 5667 5667 5665 5664 5663 5661 5660 5659 5657 5655 5655 5655 5655 5656 5656
5702 5699 5696 5694 5691 5690 5688 5687 5685 5683 5683 5681 5680 5678 5676 5675 5671 5669 5671 5672 5672 5671 5670 5669 5667 5664 5661 5659 5657 5657 5657 5658 5658 5656 5655 5653 5652 5650 5648 5648 5649 5649 5648
5700 5697 5694 5691 5688 5686 5684 5683 5680 5679 5678 5676 5675 5673 5672 5669 5665 5664 5664 5666 5667 5667 5666 5665 5662 5659 5657 5657 5653 5651 5650 5648 5648 5650 5649 5648 5646 5645 5643 5642 5642 5641 5640
5697 5694 5691 5688 5685 5682 5680 5679 5678 5677 5674 5672 5670 5669 5666 5663 5660 5659 5658 5661 5661 5660 5660 5659 5658 5655 5652 5652 5651 5649 5648 5645 5643 5643 5642 5640 5638 5636 5635 5634 5634 5634 5634
5694 5691 5689 5686 5682 5679 5677 5675 5675 5673 5670 5668 5666 5664 5662 5659 5655 5654 5653 5656 5656 5655 5653 5652 5651 5649 5643 5642 5644 5643 5642 5639 5635 5632 5630 5629 5627 5626 5625 5626 5626 5627 5627
5691 5690 5687 5684 5680 5677 5675 5673 5671 5669 5666 5663 5661 5660 5658 5656 5651 5648 5648 5651 5651 5649 5647 5645 5641 5640 5636 5635 5638 5637 5635 5633 5631 5629 5626 5623 5622 5620 5617 5617 5618 5618 5618
5690 5687 5684 5681 5677 5674 5671 5669 5667 5665 5661 5659 5656 5654 5653 5651 5646 5643 5642 5645 5644 5643 5641 5639 5636 5631 5629 5627 5628 5628 5625 5623 5623 5622 5620 5618 5616 5614 5611 5609 5608 5606 5606
5685 5682 5679 5677 5673 5670 5666 5664 5663 5659 5656 5654 5652 5650 5648 5646 5641 5638 5636 5635 5635 5635 5634 5632 5628 5623 5621 5619 5619 5616 5614 5613 5615 5614 5612 5609 5607 5605 5602 5600 5598 5596 5595
5679 5676 5674 5672 5668 5666 5663 5659 5657 5654 5652 5651 5648 5646 5643 5641 5637 5632 5630 5628 5626 5626 5626 5622 5619 5615 5613 5612 5610 5608 5606 5607 5606 5605 5603 5600 5597 5595 5592 5590 5589 5588 5587
5675 5672 5669 5666 5663 5661 5657 5655 5653 5650 5648 5646 5644 5641 5638 5635 5632 5628 5626 5623 5619 5618 5617 5613 5610 5608 5606 5604 5602 5602 5600 5598 5597 5595 5593 5591 5588 5585 5583 5581 5580 5579 5579
5671 5667 5664 5660 5658 5655 5651 5649 5647 5645 5644 5641 5639 5636 5633 5629 5626 5622 5620 5618 5615 5613 5610 5608 5606 5604 5602 5600 5598 5595 5592 5590 5588 5585 5583 5581 5579 5576 5574 5572 5570 5570 5570
5665 5662 5658 5654 5651 5649 5645 5641 5635 5635 5632 5630 5628 5627 5625 5621 5617 5613 5610 5608 5605 5602 5601 5601 5599 5597 5595 5592 5590 5587 5584 5581 5578 5576 5573 5571 5569 5567 5566 5564 5562 5560 5559
5660 5656 5652 5649 5646 5643 5640 5637 5632 5626 5622 5620 5618 5616 5614 5611 5608 5605 5602 5598 5596 5593 5594 5594 5592 5589 5586 5583 5581 5578 5575 5572 5568 5565 5563 5562 5560 5558 5556 5554 5552 5550 5548
5653 5648 5646 5643 5640 5637 5634 5631 5628 5625 5621 5617 5611 5607 5604 5602 5600 5596 5593 5590 5589 5586 5587 5586 5583 5580 5577 5574 5571 5568 5565 5562 5559 5556 5554 5552 5549 5547 5545 5542 5540 5538 5536
5645 5642 5639 5637 5634 5631 5628 5625 5622 5619 5616 5612 5608 5602 5596 5593 5590 5587 5584 5585 5584 5581 5578 5576 5573 5570 5567 5563 5560 5557 5554 5551 5548 5546 5543 5540 5538 5535 5533 5530 5528 5524 5521
5636 5632 5631 5630 5627 5624 5621 5618 5615 5612 5610 5606 5602 5598 5591 5587 5585 5580 5577 5577 5575 5572 5569 5566 5563 5559 5556 5553 5549 5546 5543 5541 5537 5534 5532 5528 5526 5523 5520 5517 5515 5512 5510
5629 5625 5621 5621 5620 5618 5615 5612 5609 5606 5603 5599 5595 5590 5584 5583 5580 5576 5572 5569 5566 5563 5560 5556 5552 5549 5545 5542 5538 5536 5533 5530 5526 5522 5519 5516 5513 5510 5507 5504 5502 5499 5498
5622 5620 5616 5615 5612 5609 5607 5604 5601 5598 5595 5591 5587 5582 5575 5574 5572 5568 5564 5560 5557 5553 5549 5545 5542 5538 5535 5531 5528 5525 5521 5518 5514 5510 5506 5503 5499 5497 5494 5491 5489 5486 5484
5614 5612 5610 5607 5604 5599 5597 5596 5593 5590 5587 5583 5579 5574 5568 5566 5563 5559 5554 5550 5546 5542 5538 5534 5531 5527 5523 5519 5515 5511 5508 5505 5500 5495 5492 5489 5486 5484 5481 5478 5475 5472 5471
5605 5603 5601 5598 5595 5592 5590 5588 5585 5582 5578 5575 5571 5567 5562 5557 5553 5549 5545 5541 5536 5532 5527 5524 5520 5517 5512 5507 5503 5499 5495 5490 5485 5481 5478 5476 5473 5471 5468 5465 5463 5460 5458
5595 5593 5591 5588 5586 5583 5581 5578 5576 5573 5569 5565 5562 5557 5553 5549 5544 5540 5535 5531 5526 5521 5517 5513 5509 5505 5501 5497 5492 5488 5482 5477 5473 5469 5466 5464 5461 5458 5455 5453 5451 5448 5446
5584 5582 5580 5578 5576 5573 5570 5568 5565 5562 5559 5555 5551 5547 5543 5538 5534 5529 5524 5520 5515 5511 5507 5503 5499 5494 5490 5486 5482 5477 5471 5467 5462 5458 5455 5453 5450 5447 5444 5441 5439 5437 5434